Year,Month,Day,Hour,Minute,Value (Times are PST for temperature in C)
2016,08,11,00,00,15.70
2016,08,11,00,01,15.60
2016,08,11,00,02,15.60
2016,08,11,00,03,15.60
2016,08,11,00,04,15.60
2016,08,11,00,05,15.60
2016,08,11,00,06,15.60
2016,08,11,00,07,15.60
2016,08,11,00,08,15.60
2016,08,11,00,09,15.60
2016,08,11,00,10,15.60
2016,08,11,00,11,15.50
2016,08,11,00,12,15.50
2016,08,11,00,13,15.50
2016,08,11,00,14,15.50
2016,08,11,00,15,15.50
2016,08,11,00,16,15.50
2016,08,11,00,17,15.50
2016,08,11,00,18,15.50
2016,08,11,00,19,15.50
2016,08,11,00,20,15.50
2016,08,11,00,21,15.50
2016,08,11,00,22,15.50
2016,08,11,00,23,15.50
2016,08,11,00,24,15.50
2016,08,11,00,25,15.40
2016,08,11,00,26,15.40
2016,08,11,00,27,15.40
2016,08,11,00,28,15.40
2016,08,11,00,29,15.30
2016,08,11,00,30,15.30
2016,08,11,00,31,15.30
2016,08,11,00,32,15.30
2016,08,11,00,33,15.30
2016,08,11,00,34,15.30
2016,08,11,00,35,15.30
2016,08,11,00,36,15.30
2016,08,11,00,37,15.30
2016,08,11,00,38,15.30
2016,08,11,00,39,15.30
2016,08,11,00,40,15.30
2016,08,11,00,41,15.30
2016,08,11,00,42,15.30
2016,08,11,00,43,15.30
2016,08,11,00,44,15.30
2016,08,11,00,45,15.30
2016,08,11,00,46,15.30
2016,08,11,00,47,15.30
2016,08,11,00,48,15.30
2016,08,11,00,49,15.30
2016,08,11,00,50,15.40
2016,08,11,00,51,15.40
2016,08,11,00,52,15.40
2016,08,11,00,53,15.40
2016,08,11,00,54,15.40
2016,08,11,00,55,15.40
2016,08,11,00,56,15.40
2016,08,11,00,57,15.40
2016,08,11,00,58,15.40
2016,08,11,00,59,15.40
2016,08,11,01,00,15.40
2016,08,11,01,01,15.40
2016,08,11,01,02,15.40
2016,08,11,01,03,15.40
2016,08,11,01,04,15.40
2016,08,11,01,05,15.40
2016,08,11,01,06,15.40
2016,08,11,01,07,15.50
2016,08,11,01,08,15.50
2016,08,11,01,09,15.50
2016,08,11,01,10,15.50
2016,08,11,01,11,15.50
2016,08,11,01,12,15.50
2016,08,11,01,13,15.50
2016,08,11,01,14,15.40
2016,08,11,01,15,15.40
2016,08,11,01,16,15.40
2016,08,11,01,17,15.40
2016,08,11,01,18,15.30
2016,08,11,01,19,15.30
2016,08,11,01,20,15.30
2016,08,11,01,21,15.30
2016,08,11,01,22,15.20
2016,08,11,01,23,15.10
2016,08,11,01,24,15.10
2016,08,11,01,25,15.00
2016,08,11,01,26,14.90
2016,08,11,01,27,14.80
2016,08,11,01,28,14.80
2016,08,11,01,29,14.70
2016,08,11,01,30,14.60
2016,08,11,01,31,14.60
2016,08,11,01,32,14.50
2016,08,11,01,33,14.40
2016,08,11,01,34,14.30
2016,08,11,01,35,14.30
2016,08,11,01,36,14.20
2016,08,11,01,37,14.10
2016,08,11,01,38,14.10
2016,08,11,01,39,14.00
2016,08,11,01,40,14.00
2016,08,11,01,41,13.90
2016,08,11,01,42,13.90
2016,08,11,01,43,13.80
2016,08,11,01,44,13.80
2016,08,11,01,45,13.80
2016,08,11,01,46,13.80
2016,08,11,01,47,13.80
2016,08,11,01,48,13.70
2016,08,11,01,49,13.80
2016,08,11,01,50,13.90
2016,08,11,01,51,13.90
2016,08,11,01,52,13.70
2016,08,11,01,53,13.70
2016,08,11,01,54,13.70
2016,08,11,01,55,13.70
2016,08,11,01,56,13.80
2016,08,11,01,57,13.80
2016,08,11,01,58,13.70
2016,08,11,01,59,13.70
2016,08,11,02,00,13.70
2016,08,11,02,01,13.70
2016,08,11,02,02,13.70
2016,08,11,02,03,13.80
2016,08,11,02,04,13.70
2016,08,11,02,05,13.70
2016,08,11,02,06,13.70
2016,08,11,02,07,13.70
2016,08,11,02,08,13.70
2016,08,11,02,09,13.70
2016,08,11,02,10,13.80
2016,08,11,02,11,13.80
2016,08,11,02,12,13.70
2016,08,11,02,13,13.70
2016,08,11,02,14,13.70
2016,08,11,02,15,13.70
2016,08,11,02,16,13.70
2016,08,11,02,17,13.70
2016,08,11,02,18,13.70
2016,08,11,02,19,13.70
2016,08,11,02,20,13.70
2016,08,11,02,21,13.70
2016,08,11,02,22,13.70
2016,08,11,02,23,13.70
2016,08,11,02,24,13.70
2016,08,11,02,25,13.70
2016,08,11,02,26,13.70
2016,08,11,02,27,13.70
2016,08,11,02,28,13.70
2016,08,11,02,29,13.70
2016,08,11,02,30,13.70
2016,08,11,02,31,13.70
2016,08,11,02,32,13.70
2016,08,11,02,33,13.80
2016,08,11,02,34,13.80
2016,08,11,02,35,13.80
2016,08,11,02,36,13.80
2016,08,11,02,37,13.80
2016,08,11,02,38,13.90
2016,08,11,02,39,13.90
2016,08,11,02,40,13.90
2016,08,11,02,41,13.90
2016,08,11,02,42,14.00
2016,08,11,02,43,14.00
2016,08,11,02,44,14.00
2016,08,11,02,45,14.00
2016,08,11,02,46,14.00
2016,08,11,02,47,14.00
2016,08,11,02,48,14.00
2016,08,11,02,49,14.00
2016,08,11,02,50,14.00
2016,08,11,02,51,14.00
2016,08,11,02,52,14.10
2016,08,11,02,53,14.10
2016,08,11,02,54,14.10
2016,08,11,02,55,14.10
2016,08,11,02,56,14.10
2016,08,11,02,57,14.10
2016,08,11,02,58,14.10
2016,08,11,02,59,14.10
2016,08,11,03,00,14.10
2016,08,11,03,01,14.10
2016,08,11,03,02,14.10
2016,08,11,03,03,14.10
2016,08,11,03,04,14.10
2016,08,11,03,05,14.10
2016,08,11,03,06,14.10
2016,08,11,03,07,14.10
2016,08,11,03,08,14.10
2016,08,11,03,09,14.10
2016,08,11,03,10,14.10
2016,08,11,03,11,14.10
2016,08,11,03,12,14.10
2016,08,11,03,13,14.10
2016,08,11,03,14,14.10
2016,08,11,03,15,14.00
2016,08,11,03,16,14.00
2016,08,11,03,17,14.00
2016,08,11,03,18,14.00
2016,08,11,03,19,14.00
2016,08,11,03,20,14.00
2016,08,11,03,21,14.00
2016,08,11,03,22,14.00
2016,08,11,03,23,14.00
2016,08,11,03,24,14.00
2016,08,11,03,25,13.90
2016,08,11,03,26,13.90
2016,08,11,03,27,13.90
2016,08,11,03,28,13.90
2016,08,11,03,29,13.90
2016,08,11,03,30,13.90
2016,08,11,03,31,13.90
2016,08,11,03,32,13.90
2016,08,11,03,33,13.90
2016,08,11,03,34,13.80
2016,08,11,03,35,13.80
2016,08,11,03,36,13.70
2016,08,11,03,37,13.70
2016,08,11,03,38,13.70
2016,08,11,03,39,13.70
2016,08,11,03,40,13.70
2016,08,11,03,41,13.70
2016,08,11,03,42,13.70
2016,08,11,03,43,13.70
2016,08,11,03,44,13.70
2016,08,11,03,45,13.70
2016,08,11,03,46,13.70
2016,08,11,03,47,13.70
2016,08,11,03,48,13.70
2016,08,11,03,49,13.70
2016,08,11,03,50,13.70
2016,08,11,03,51,13.70
2016,08,11,03,52,13.70
2016,08,11,03,53,13.70
2016,08,11,03,54,13.70
2016,08,11,03,55,13.70
2016,08,11,03,56,13.70
2016,08,11,03,57,13.70
2016,08,11,03,58,13.70
2016,08,11,03,59,13.70
2016,08,11,04,00,13.70
2016,08,11,04,01,13.70
2016,08,11,04,02,13.60
2016,08,11,04,03,13.60
2016,08,11,04,04,13.60
2016,08,11,04,05,13.60
2016,08,11,04,06,13.60
2016,08,11,04,07,13.50
2016,08,11,04,08,13.60
2016,08,11,04,09,13.60
2016,08,11,04,10,13.50
2016,08,11,04,11,13.50
2016,08,11,04,12,13.50
2016,08,11,04,13,13.50
2016,08,11,04,14,13.50
2016,08,11,04,15,13.50
2016,08,11,04,16,13.50
2016,08,11,04,17,13.50
2016,08,11,04,18,13.40
2016,08,11,04,19,13.40
2016,08,11,04,20,13.40
2016,08,11,04,21,13.40
2016,08,11,04,22,13.30
2016,08,11,04,23,13.30
2016,08,11,04,24,13.30
2016,08,11,04,25,13.30
2016,08,11,04,26,13.30
2016,08,11,04,27,13.30
2016,08,11,04,28,13.30
2016,08,11,04,29,13.30
2016,08,11,04,30,13.30
2016,08,11,04,31,13.30
2016,08,11,04,32,13.30
2016,08,11,04,33,13.20
2016,08,11,04,34,13.20
2016,08,11,04,35,13.20
2016,08,11,04,36,13.20
2016,08,11,04,37,13.20
2016,08,11,04,38,13.20
2016,08,11,04,39,13.20
2016,08,11,04,40,13.20
2016,08,11,04,41,13.20
2016,08,11,04,42,13.20
2016,08,11,04,43,13.20
2016,08,11,04,44,13.20
2016,08,11,04,45,13.20
2016,08,11,04,46,13.20
2016,08,11,04,47,13.20
2016,08,11,04,48,13.10
2016,08,11,04,49,13.10
2016,08,11,04,50,13.20
2016,08,11,04,51,13.20
2016,08,11,04,52,13.20
2016,08,11,04,53,13.20
2016,08,11,04,54,13.20
2016,08,11,04,55,13.20
2016,08,11,04,56,13.20
2016,08,11,04,57,13.20
2016,08,11,04,58,13.20
2016,08,11,04,59,13.20
2016,08,11,05,00,13.10
2016,08,11,05,01,13.10
2016,08,11,05,02,13.10
2016,08,11,05,03,13.20
2016,08,11,05,04,13.10
2016,08,11,05,05,13.20
2016,08,11,05,06,13.20
2016,08,11,05,07,13.20
2016,08,11,05,08,13.20
2016,08,11,05,09,13.20
2016,08,11,05,10,13.20
2016,08,11,05,11,13.20
2016,08,11,05,12,13.20
2016,08,11,05,13,13.20
2016,08,11,05,14,13.20
2016,08,11,05,15,13.20
2016,08,11,05,16,13.20
2016,08,11,05,17,13.30
2016,08,11,05,18,13.30
2016,08,11,05,19,13.30
2016,08,11,05,20,13.30
2016,08,11,05,21,13.30
2016,08,11,05,22,13.30
2016,08,11,05,23,13.30
2016,08,11,05,24,13.30
2016,08,11,05,25,13.20
2016,08,11,05,26,13.30
2016,08,11,05,27,13.30
2016,08,11,05,28,13.30
2016,08,11,05,29,13.30
2016,08,11,05,30,13.30
2016,08,11,05,31,13.30
2016,08,11,05,32,13.30
2016,08,11,05,33,13.30
2016,08,11,05,34,13.30
2016,08,11,05,35,13.30
2016,08,11,05,36,13.30
2016,08,11,05,37,13.30
2016,08,11,05,38,13.30
2016,08,11,05,39,13.30
2016,08,11,05,40,13.30
2016,08,11,05,41,13.30
2016,08,11,05,42,13.30
2016,08,11,05,43,13.30
2016,08,11,05,44,13.30
2016,08,11,05,45,13.20
2016,08,11,05,46,13.20
2016,08,11,05,47,13.10
2016,08,11,05,48,13.10
2016,08,11,05,49,13.10
2016,08,11,05,50,13.10
2016,08,11,05,51,13.10
2016,08,11,05,52,13.10
2016,08,11,05,53,13.00
2016,08,11,05,54,13.00
2016,08,11,05,55,13.00
2016,08,11,05,56,13.00
2016,08,11,05,57,12.90
2016,08,11,05,58,12.90
2016,08,11,05,59,12.90
2016,08,11,06,00,12.90
2016,08,11,06,01,12.90
2016,08,11,06,02,12.90
2016,08,11,06,03,12.80
2016,08,11,06,04,12.80
2016,08,11,06,05,12.80
2016,08,11,06,06,12.80
2016,08,11,06,07,12.80
2016,08,11,06,08,12.80
2016,08,11,06,09,12.80
2016,08,11,06,10,12.80
2016,08,11,06,11,12.70
2016,08,11,06,12,12.70
2016,08,11,06,13,12.70
2016,08,11,06,14,12.70
2016,08,11,06,15,12.70
2016,08,11,06,16,12.60
2016,08,11,06,17,12.70
2016,08,11,06,18,12.70
2016,08,11,06,19,12.70
2016,08,11,06,20,12.70
2016,08,11,06,21,12.70
2016,08,11,06,22,12.70
2016,08,11,06,23,12.70
2016,08,11,06,24,12.70
2016,08,11,06,25,12.70
2016,08,11,06,26,12.70
2016,08,11,06,27,12.80
2016,08,11,06,28,12.80
2016,08,11,06,29,12.80
2016,08,11,06,30,12.80
2016,08,11,06,31,12.80
2016,08,11,06,32,12.80
2016,08,11,06,33,12.80
2016,08,11,06,34,12.90
2016,08,11,06,35,12.90
2016,08,11,06,36,12.90
2016,08,11,06,37,12.90
2016,08,11,06,38,12.90
2016,08,11,06,39,12.90
2016,08,11,06,40,12.90
2016,08,11,06,41,12.90
2016,08,11,06,42,12.90
2016,08,11,06,43,12.90
2016,08,11,06,44,12.90
2016,08,11,06,45,12.90
2016,08,11,06,46,12.90
2016,08,11,06,47,12.90
2016,08,11,06,48,12.90
2016,08,11,06,49,13.00
2016,08,11,06,50,13.00
2016,08,11,06,51,13.00
2016,08,11,06,52,13.00
2016,08,11,06,53,13.10
2016,08,11,06,54,13.10
2016,08,11,06,55,13.10
2016,08,11,06,56,13.20
2016,08,11,06,57,13.20
2016,08,11,06,58,13.20
2016,08,11,06,59,13.20
2016,08,11,07,00,13.30
2016,08,11,07,01,13.30
2016,08,11,07,02,13.40
2016,08,11,07,03,13.40
2016,08,11,07,04,13.50
2016,08,11,07,05,13.60
2016,08,11,07,06,13.70
2016,08,11,07,07,13.80
2016,08,11,07,08,13.90
2016,08,11,07,09,13.90
2016,08,11,07,10,13.90
2016,08,11,07,11,14.00
2016,08,11,07,12,14.00
2016,08,11,07,13,14.00
2016,08,11,07,14,14.00
2016,08,11,07,15,14.10
2016,08,11,07,16,14.10
2016,08,11,07,17,14.20
2016,08,11,07,18,14.20
2016,08,11,07,19,14.30
2016,08,11,07,20,14.40
2016,08,11,07,21,14.50
2016,08,11,07,22,14.60
2016,08,11,07,23,14.70
2016,08,11,07,24,14.80
2016,08,11,07,25,15.00
2016,08,11,07,26,15.10
2016,08,11,07,27,15.20
2016,08,11,07,28,15.30
2016,08,11,07,29,15.30
2016,08,11,07,30,15.30
2016,08,11,07,31,15.30
2016,08,11,07,32,15.40
2016,08,11,07,33,15.40
2016,08,11,07,34,15.40
2016,08,11,07,35,15.50
2016,08,11,07,36,15.50
2016,08,11,07,37,15.60
2016,08,11,07,38,15.60
2016,08,11,07,39,15.60
2016,08,11,07,40,15.70
2016,08,11,07,41,15.70
2016,08,11,07,42,15.80
2016,08,11,07,43,15.80
2016,08,11,07,44,15.80
2016,08,11,07,45,15.80
2016,08,11,07,46,15.90
2016,08,11,07,47,16.00
2016,08,11,07,48,16.10
2016,08,11,07,49,16.20
2016,08,11,07,50,16.20
2016,08,11,07,51,16.30
2016,08,11,07,52,16.30
2016,08,11,07,53,16.30
2016,08,11,07,54,16.40
2016,08,11,07,55,16.40
2016,08,11,07,56,16.50
2016,08,11,07,57,16.60
2016,08,11,07,58,16.70
2016,08,11,07,59,16.70
2016,08,11,08,00,16.80
2016,08,11,08,01,16.80
2016,08,11,08,02,16.80
2016,08,11,08,03,16.80
2016,08,11,08,04,16.80
2016,08,11,08,05,16.80
2016,08,11,08,06,16.80
2016,08,11,08,07,16.70
2016,08,11,08,08,16.70
2016,08,11,08,09,16.70
2016,08,11,08,10,16.70
2016,08,11,08,11,16.70
2016,08,11,08,12,16.70
2016,08,11,08,13,16.70
2016,08,11,08,14,16.70
2016,08,11,08,15,16.70
2016,08,11,08,16,16.70
2016,08,11,08,17,16.70
2016,08,11,08,18,16.70
2016,08,11,08,19,16.70
2016,08,11,08,20,16.70
2016,08,11,08,21,16.70
2016,08,11,08,22,16.70
2016,08,11,08,23,16.70
2016,08,11,08,24,16.70
2016,08,11,08,25,16.70
2016,08,11,08,26,16.60
2016,08,11,08,27,16.60
2016,08,11,08,28,16.60
2016,08,11,08,29,16.60
2016,08,11,08,30,16.60
2016,08,11,08,31,16.60
2016,08,11,08,32,16.60
2016,08,11,08,33,16.60
2016,08,11,08,34,16.60
2016,08,11,08,35,16.60
2016,08,11,08,36,16.40
2016,08,11,08,37,16.40
2016,08,11,08,38,16.40
2016,08,11,08,39,16.40
2016,08,11,08,40,16.40
2016,08,11,08,41,16.40
2016,08,11,08,42,16.40
2016,08,11,08,43,16.40
2016,08,11,08,44,16.40
2016,08,11,08,45,16.40
2016,08,11,08,46,16.40
2016,08,11,08,47,16.40
2016,08,11,08,48,16.40
2016,08,11,08,49,16.40
2016,08,11,08,50,16.40
2016,08,11,08,51,16.40
2016,08,11,08,52,16.50
2016,08,11,08,53,16.60
2016,08,11,08,54,16.70
2016,08,11,08,55,16.70
2016,08,11,08,56,16.70
2016,08,11,08,57,16.70
2016,08,11,08,58,16.80
2016,08,11,08,59,16.90
2016,08,11,09,00,16.90
2016,08,11,09,01,16.90
2016,08,11,09,02,17.00
2016,08,11,09,03,17.00
2016,08,11,09,04,17.10
2016,08,11,09,05,17.20
2016,08,11,09,06,17.30
2016,08,11,09,07,17.40
2016,08,11,09,08,17.50
2016,08,11,09,09,17.60
2016,08,11,09,10,17.60
2016,08,11,09,11,17.60
2016,08,11,09,12,17.60
2016,08,11,09,13,17.60
2016,08,11,09,14,17.60
2016,08,11,09,15,17.60
2016,08,11,09,16,17.60
2016,08,11,09,17,17.70
2016,08,11,09,18,17.80
2016,08,11,09,19,17.80
2016,08,11,09,20,17.70
2016,08,11,09,21,17.70
2016,08,11,09,22,17.60
2016,08,11,09,23,17.70
2016,08,11,09,24,17.80
2016,08,11,09,25,17.90
2016,08,11,09,26,17.90
2016,08,11,09,27,17.90
2016,08,11,09,28,18.00
2016,08,11,09,29,18.10
2016,08,11,09,30,18.20
2016,08,11,09,31,18.20
2016,08,11,09,32,18.10
2016,08,11,09,33,18.10
2016,08,11,09,34,18.20
2016,08,11,09,35,18.20
2016,08,11,09,36,18.30
2016,08,11,09,37,18.30
2016,08,11,09,38,18.20
2016,08,11,09,39,18.20
2016,08,11,09,40,18.20
2016,08,11,09,41,18.30
2016,08,11,09,42,18.50
2016,08,11,09,43,18.50
2016,08,11,09,44,18.50
2016,08,11,09,45,18.60
2016,08,11,09,46,18.70
2016,08,11,09,47,18.90
2016,08,11,09,48,18.80
2016,08,11,09,49,18.80
2016,08,11,09,50,18.80
2016,08,11,09,51,18.90
2016,08,11,09,52,18.90
2016,08,11,09,53,18.90
2016,08,11,09,54,18.90
2016,08,11,09,55,18.90
2016,08,11,09,56,18.80
2016,08,11,09,57,18.60
2016,08,11,09,58,18.40
2016,08,11,09,59,18.30
2016,08,11,10,00,18.30
2016,08,11,10,01,18.30
2016,08,11,10,02,18.30
2016,08,11,10,03,18.40
2016,08,11,10,04,18.40
2016,08,11,10,05,18.50
2016,08,11,10,06,18.60
2016,08,11,10,07,18.60
2016,08,11,10,08,18.60
2016,08,11,10,09,18.60
2016,08,11,10,10,18.60
2016,08,11,10,11,18.50
2016,08,11,10,12,18.40
2016,08,11,10,13,18.50
2016,08,11,10,14,18.70
2016,08,11,10,15,18.80
2016,08,11,10,16,18.90
2016,08,11,10,17,18.90
2016,08,11,10,18,18.90
2016,08,11,10,19,19.00
2016,08,11,10,20,19.10
2016,08,11,10,21,19.20
2016,08,11,10,22,19.40
2016,08,11,10,23,19.50
2016,08,11,10,24,19.60
2016,08,11,10,25,19.80
2016,08,11,10,26,19.90
2016,08,11,10,27,20.00
2016,08,11,10,28,20.10
2016,08,11,10,29,20.20
2016,08,11,10,30,20.40
2016,08,11,10,31,20.50
2016,08,11,10,32,20.70
2016,08,11,10,33,20.80
2016,08,11,10,34,20.90
2016,08,11,10,35,20.80
2016,08,11,10,36,20.70
2016,08,11,10,37,20.70
2016,08,11,10,38,20.70
2016,08,11,10,39,20.80
2016,08,11,10,40,20.80
2016,08,11,10,41,20.90
2016,08,11,10,42,20.90
2016,08,11,10,43,20.90
2016,08,11,10,44,20.90
2016,08,11,10,45,20.90
2016,08,11,10,46,20.90
2016,08,11,10,47,20.90
2016,08,11,10,48,21.00
2016,08,11,10,49,21.00
2016,08,11,10,50,21.20
2016,08,11,10,51,21.30
2016,08,11,10,52,21.30
2016,08,11,10,53,21.50
2016,08,11,10,54,21.60
2016,08,11,10,55,21.60
2016,08,11,10,56,21.70
2016,08,11,10,57,21.70
2016,08,11,10,58,21.70
2016,08,11,10,59,21.70
2016,08,11,11,00,21.70
2016,08,11,11,01,21.70
2016,08,11,11,02,21.70
2016,08,11,11,03,21.80
2016,08,11,11,04,21.80
2016,08,11,11,05,21.80
2016,08,11,11,06,21.80
2016,08,11,11,07,21.90
2016,08,11,11,08,21.90
2016,08,11,11,09,21.90
2016,08,11,11,10,22.00
2016,08,11,11,11,22.00
2016,08,11,11,12,22.10
2016,08,11,11,13,22.10
2016,08,11,11,14,22.20
2016,08,11,11,15,22.20
2016,08,11,11,16,22.30
2016,08,11,11,17,22.30
2016,08,11,11,18,22.40
2016,08,11,11,19,22.40
2016,08,11,11,20,22.40
2016,08,11,11,21,22.50
2016,08,11,11,22,22.50
2016,08,11,11,23,22.50
2016,08,11,11,24,22.50
2016,08,11,11,25,22.60
2016,08,11,11,26,22.60
2016,08,11,11,27,22.60
2016,08,11,11,28,22.60
2016,08,11,11,29,22.40
2016,08,11,11,30,22.20
2016,08,11,11,31,22.00
2016,08,11,11,32,21.80
2016,08,11,11,33,21.80
2016,08,11,11,34,21.80
2016,08,11,11,35,21.80
2016,08,11,11,36,21.60
2016,08,11,11,37,21.30
2016,08,11,11,38,21.30
2016,08,11,11,39,21.30
2016,08,11,11,40,21.20
2016,08,11,11,41,21.10
2016,08,11,11,42,21.00
2016,08,11,11,43,21.00
2016,08,11,11,44,20.90
2016,08,11,11,45,20.80
2016,08,11,11,46,20.80
2016,08,11,11,47,20.80
2016,08,11,11,48,21.00
2016,08,11,11,49,21.00
2016,08,11,11,50,21.00
2016,08,11,11,51,21.10
2016,08,11,11,52,21.10
2016,08,11,11,53,21.20
2016,08,11,11,54,21.20
2016,08,11,11,55,21.30
2016,08,11,11,56,21.30
2016,08,11,11,57,21.50
2016,08,11,11,58,21.70
2016,08,11,11,59,21.90
2016,08,11,12,00,22.00
2016,08,11,12,01,22.20
2016,08,11,12,02,22.30
2016,08,11,12,03,22.40
2016,08,11,12,04,22.60
2016,08,11,12,05,22.60
2016,08,11,12,06,22.80
2016,08,11,12,07,22.80
2016,08,11,12,08,22.90
2016,08,11,12,09,22.90
2016,08,11,12,10,22.90
2016,08,11,12,11,23.10
2016,08,11,12,12,23.10
2016,08,11,12,13,23.20
2016,08,11,12,14,23.20
2016,08,11,12,15,23.20
2016,08,11,12,16,23.20
2016,08,11,12,17,23.20
2016,08,11,12,18,23.30
2016,08,11,12,19,23.30
2016,08,11,12,20,23.30
2016,08,11,12,21,23.30
2016,08,11,12,22,23.30
2016,08,11,12,23,23.30
2016,08,11,12,24,23.30
2016,08,11,12,25,23.30
2016,08,11,12,26,23.40
2016,08,11,12,27,23.40
2016,08,11,12,28,23.40
2016,08,11,12,29,23.40
2016,08,11,12,30,23.30
2016,08,11,12,31,23.30
2016,08,11,12,32,23.30
2016,08,11,12,33,23.30
2016,08,11,12,34,23.30
2016,08,11,12,35,23.40
2016,08,11,12,36,23.40
2016,08,11,12,37,23.50
2016,08,11,12,38,23.60
2016,08,11,12,39,23.60
2016,08,11,12,40,23.70
2016,08,11,12,41,23.70
2016,08,11,12,42,23.70
2016,08,11,12,43,23.70
2016,08,11,12,44,23.80
2016,08,11,12,45,23.80
2016,08,11,12,46,23.90
2016,08,11,12,47,23.90
2016,08,11,12,48,23.90
2016,08,11,12,49,23.90
2016,08,11,12,50,23.90
2016,08,11,12,51,23.90
2016,08,11,12,52,24.00
2016,08,11,12,53,24.10
2016,08,11,12,54,24.10
2016,08,11,12,55,24.10
2016,08,11,12,56,24.10
2016,08,11,12,57,24.10
2016,08,11,12,58,24.10
2016,08,11,12,59,24.10
2016,08,11,13,00,24.10
2016,08,11,13,01,24.10
2016,08,11,13,02,24.10
2016,08,11,13,03,24.10
2016,08,11,13,04,24.20
2016,08,11,13,05,24.20
2016,08,11,13,06,24.30
2016,08,11,13,07,24.30
2016,08,11,13,08,24.40
2016,08,11,13,09,24.40
2016,08,11,13,10,24.40
2016,08,11,13,11,24.40
2016,08,11,13,12,24.30
2016,08,11,13,13,24.20
2016,08,11,13,14,24.10
2016,08,11,13,15,24.10
2016,08,11,13,16,24.10
2016,08,11,13,17,24.10
2016,08,11,13,18,24.10
2016,08,11,13,19,24.10
2016,08,11,13,20,24.10
2016,08,11,13,21,24.10
2016,08,11,13,22,24.20
2016,08,11,13,23,24.20
2016,08,11,13,24,24.20
2016,08,11,13,25,24.20
2016,08,11,13,26,24.20
2016,08,11,13,27,24.10
2016,08,11,13,28,24.10
2016,08,11,13,29,24.00
2016,08,11,13,30,23.80
2016,08,11,13,31,23.80
2016,08,11,13,32,23.80
2016,08,11,13,33,23.80
2016,08,11,13,34,23.90
2016,08,11,13,35,23.90
2016,08,11,13,36,23.90
2016,08,11,13,37,23.80
2016,08,11,13,38,23.80
2016,08,11,13,39,23.80
2016,08,11,13,40,23.80
2016,08,11,13,41,23.80
2016,08,11,13,42,23.90
2016,08,11,13,43,24.00
2016,08,11,13,44,24.10
2016,08,11,13,45,24.00
2016,08,11,13,46,23.90
2016,08,11,13,47,23.90
2016,08,11,13,48,23.80
2016,08,11,13,49,23.60
2016,08,11,13,50,23.40
2016,08,11,13,51,23.20
2016,08,11,13,52,22.90
2016,08,11,13,53,22.60
2016,08,11,13,54,22.30
2016,08,11,13,55,22.20
2016,08,11,13,56,22.00
2016,08,11,13,57,21.70
2016,08,11,13,58,21.60
2016,08,11,13,59,21.50
2016,08,11,14,00,21.40
2016,08,11,14,01,21.40
2016,08,11,14,02,21.40
2016,08,11,14,03,21.20
2016,08,11,14,04,21.10
2016,08,11,14,05,21.20
2016,08,11,14,06,21.20
2016,08,11,14,07,21.20
2016,08,11,14,08,21.20
2016,08,11,14,09,21.30
2016,08,11,14,10,21.30
2016,08,11,14,11,21.30
2016,08,11,14,12,21.30
2016,08,11,14,13,21.30
2016,08,11,14,14,21.50
2016,08,11,14,15,21.60
2016,08,11,14,16,21.70
2016,08,11,14,17,21.90
2016,08,11,14,18,22.00
2016,08,11,14,19,22.20
2016,08,11,14,20,22.30
2016,08,11,14,21,22.50
2016,08,11,14,22,22.50
2016,08,11,14,23,22.60
2016,08,11,14,24,22.60
2016,08,11,14,25,22.60
2016,08,11,14,26,22.70
2016,08,11,14,27,22.70
2016,08,11,14,28,22.70
2016,08,11,14,29,22.60
2016,08,11,14,30,22.40
2016,08,11,14,31,22.40
2016,08,11,14,32,22.50
2016,08,11,14,33,22.50
2016,08,11,14,34,22.60
2016,08,11,14,35,22.60
2016,08,11,14,36,22.60
2016,08,11,14,37,22.50
2016,08,11,14,38,22.50
2016,08,11,14,39,22.60
2016,08,11,14,40,22.70
2016,08,11,14,41,22.60
2016,08,11,14,42,22.50
2016,08,11,14,43,22.40
2016,08,11,14,44,22.50
2016,08,11,14,45,22.50
2016,08,11,14,46,22.60
2016,08,11,14,47,22.70
2016,08,11,14,48,22.70
2016,08,11,14,49,22.60
2016,08,11,14,50,22.70
2016,08,11,14,51,22.70
2016,08,11,14,52,22.50
2016,08,11,14,53,22.40
2016,08,11,14,54,22.40
2016,08,11,14,55,22.40
2016,08,11,14,56,22.40
2016,08,11,14,57,22.50
2016,08,11,14,58,22.30
2016,08,11,14,59,22.20
2016,08,11,15,00,22.00
2016,08,11,15,01,22.00
2016,08,11,15,02,22.10
2016,08,11,15,03,22.00
2016,08,11,15,04,22.00
2016,08,11,15,05,21.80
2016,08,11,15,06,21.80
2016,08,11,15,07,21.80
2016,08,11,15,08,21.80
2016,08,11,15,09,21.80
2016,08,11,15,10,21.90
2016,08,11,15,11,21.90
2016,08,11,15,12,21.80
2016,08,11,15,13,21.80
2016,08,11,15,14,21.80
2016,08,11,15,15,21.80
2016,08,11,15,16,21.70
2016,08,11,15,17,21.60
2016,08,11,15,18,21.60
2016,08,11,15,19,21.60
2016,08,11,15,20,21.60
2016,08,11,15,21,21.50
2016,08,11,15,22,21.40
2016,08,11,15,23,21.20
2016,08,11,15,24,21.10
2016,08,11,15,25,20.80
2016,08,11,15,26,20.60
2016,08,11,15,27,20.60
2016,08,11,15,28,20.60
2016,08,11,15,29,20.70
2016,08,11,15,30,20.80
2016,08,11,15,31,20.90
2016,08,11,15,32,21.00
2016,08,11,15,33,21.10
2016,08,11,15,34,21.10
2016,08,11,15,35,21.10
2016,08,11,15,36,21.10
2016,08,11,15,37,21.10
2016,08,11,15,38,21.10
2016,08,11,15,39,21.20
2016,08,11,15,40,21.30
2016,08,11,15,41,21.50
2016,08,11,15,42,21.60
2016,08,11,15,43,21.40
2016,08,11,15,44,21.20
2016,08,11,15,45,21.10
2016,08,11,15,46,21.10
2016,08,11,15,47,21.10
2016,08,11,15,48,21.20
2016,08,11,15,49,21.20
2016,08,11,15,50,21.30
2016,08,11,15,51,21.40
2016,08,11,15,52,21.50
2016,08,11,15,53,21.60
2016,08,11,15,54,21.70
2016,08,11,15,55,21.80
2016,08,11,15,56,21.90
2016,08,11,15,57,21.90
2016,08,11,15,58,21.90
2016,08,11,15,59,21.80
2016,08,11,16,00,21.60
2016,08,11,16,01,21.30
2016,08,11,16,02,21.30
2016,08,11,16,03,21.30
2016,08,11,16,04,21.30
2016,08,11,16,05,21.40
2016,08,11,16,06,21.60
2016,08,11,16,07,21.70
2016,08,11,16,08,21.70
2016,08,11,16,09,21.70
2016,08,11,16,10,21.60
2016,08,11,16,11,21.60
2016,08,11,16,12,21.60
2016,08,11,16,13,21.60
2016,08,11,16,14,21.70
2016,08,11,16,15,21.90
2016,08,11,16,16,22.00
2016,08,11,16,17,22.00
2016,08,11,16,18,22.10
2016,08,11,16,19,22.10
2016,08,11,16,20,22.30
2016,08,11,16,21,22.30
2016,08,11,16,22,22.30
2016,08,11,16,23,22.30
2016,08,11,16,24,22.30
2016,08,11,16,25,22.20
2016,08,11,16,26,22.20
2016,08,11,16,27,22.20
2016,08,11,16,28,22.30
2016,08,11,16,29,22.30
2016,08,11,16,30,22.40
2016,08,11,16,31,22.40
2016,08,11,16,32,22.30
2016,08,11,16,33,22.30
2016,08,11,16,34,22.30
2016,08,11,16,35,22.20
2016,08,11,16,36,22.30
2016,08,11,16,37,22.30
2016,08,11,16,38,22.30
2016,08,11,16,39,22.30
2016,08,11,16,40,22.20
2016,08,11,16,41,22.20
2016,08,11,16,42,22.20
2016,08,11,16,43,22.30
2016,08,11,16,44,22.30
2016,08,11,16,45,22.20
2016,08,11,16,46,22.20
2016,08,11,16,47,22.10
2016,08,11,16,48,22.10
2016,08,11,16,49,22.20
2016,08,11,16,50,22.30
2016,08,11,16,51,22.20
2016,08,11,16,52,22.10
2016,08,11,16,53,22.00
2016,08,11,16,54,22.00
2016,08,11,16,55,21.90
2016,08,11,16,56,21.90
2016,08,11,16,57,21.90
2016,08,11,16,58,21.90
2016,08,11,16,59,21.90
2016,08,11,17,00,22.00
2016,08,11,17,01,22.10
2016,08,11,17,02,22.10
2016,08,11,17,03,22.10
2016,08,11,17,04,22.10
2016,08,11,17,05,22.10
2016,08,11,17,06,22.10
2016,08,11,17,07,22.20
2016,08,11,17,08,22.30
2016,08,11,17,09,22.40
2016,08,11,17,10,22.50
2016,08,11,17,11,22.60
2016,08,11,17,12,22.70
2016,08,11,17,13,22.70
2016,08,11,17,14,22.80
2016,08,11,17,15,22.80
2016,08,11,17,16,22.90
2016,08,11,17,17,22.90
2016,08,11,17,18,22.90
2016,08,11,17,19,22.90